Location: Camp Creek
(33.9000°N, 111.8167°W)
Time: 11:56:08
(UTC-07:00)

DELTA 2 R/B (1) - Visible Passes

Search period start: 30 October 2014 00:00
Search period end: 09 November 2014 00:00
Orbit: 791 x 804 km, 39.6° (Epoch: 30 October)

Date Brightness Start Highest point End Pass type
(mag) Time Alt. Az. Time Alt. Az. Time Alt. Az.
30 Oct 6.4 03:16:32 11° ESE 03:16:32 11° ESE 03:16:47 10° ESE visible
30 Oct 4.1 04:57:21 39° SW 04:57:34 40° SSW 05:02:41 10° SE visible
31 Oct 4.7 04:28:48 33° S 04:28:48 33° S 04:32:11 10° SE visible
01 Nov 5.7 04:00:18 18° SE 04:00:18 18° SE 04:01:41 10° SE visible
01 Nov 5.9 20:14:19 10° SSW 20:15:07 14° SSW 20:15:07 14° SSW visible
02 Nov 5.7 05:12:40 11° SSW 05:12:40 11° SSW 05:13:15 10° SSW visible
02 Nov 5.1 19:43:51 10° SSW 19:46:36 24° S 19:46:36 24° S visible
03 Nov 4.6 19:13:25 10° SSW 19:18:01 28° SE 19:18:01 28° SE visible
03 Nov 6.4 20:58:37 10° WSW 20:58:50 11° WSW 20:58:50 11° WSW visible
04 Nov 4.8 18:43:00 10° SSW 18:47:32 26° SE 18:49:22 21° ESE visible
04 Nov 5.5 20:28:00 10° WSW 20:30:11 25° WSW 20:30:11 25° WSW visible
05 Nov 5.0 18:12:36 10° SSW 18:16:57 23° SE 18:20:40 13° E visible
05 Nov 4.3 19:57:22 10° WSW 20:01:28 50° WSW 20:01:28 50° WSW visible
06 Nov 3.4 19:26:46 10° WSW 19:32:21 78° SSE 19:32:41 75° ESE visible
07 Nov 3.6 18:56:10 10° WSW 19:01:44 73° SSE 19:03:51 39° ENE visible
07 Nov 5.9 20:42:57 10° W 20:44:39 20° W 20:44:39 20° W visible
08 Nov 3.7 18:25:34 10° SW 18:31:07 68° SSE 18:34:57 21° ENE visible
08 Nov 4.9 20:12:16 10° W 20:15:45 36° WNW 20:15:45 36° WNW visible
